Regional Weather Roundup
Issued by NWS

Home | Current Version | Previous Version | Text Only | Print | Product List | Glossary Off
Versions: 1 2 3 4 5 6 7 8 9 10 11 12 13 14 15 16 17 18 19 20 21 22 23 24 25 26 27

000
ASUS45 KSLC 272110
RWRUT

UTAH REGIONAL WEATHER ROUNDUP
NATIONAL WEATHER SERVICE SALT LAKE CITY UT
300 PM MDT TUE JUN 27 2017

UTZ001>011-023>025-272200-

NORTHERN UTAH

CITY           SKY/WX    TMP DP  RH WIND       PRES   REMARKS
BRIGHAM CITY   SUNNY     88  33  14 W9        29.92R
DUGWAY         MOSUNNY   90  23   8 NW13      29.92F
HILL AFB       MOSUNNY   84  40  20 W14       29.97F
LOGAN          MOSUNNY   84  46  26 N14       29.92S
OGDEN          SUNNY     87  41  19 SW13      29.94F
SALT LAKE CITY MOSUNNY   90  33  13 N17       29.93F
TOOELE VALLEY  SUNNY     86  45  23 N13G18    29.94F
WENDOVER         N/A     90  22   8 NW12G28   29.92F
HEBER CITY     MOSUNNY   88  36  15 SW14      29.98S
WEST JORDAN    SUNNY     86  51  29 NW15G25   29.97S

$$

UTZ011>015-024>027-272200-

CENTRAL/NORTHEAST UTAH

CITY           SKY/WX    TMP DP  RH WIND       PRES   REMARKS
PROVO AIRPORT  SUNNY     88  47  24 NW16      29.93F
MOAB/CANYONLAN SUNNY     97  10   4 SW10G20   29.84F HX  90
DELTA          SUNNY     90  27  10 NW7       29.94F
PRICE          SUNNY     90  30  11 W21G30    29.98F
VERNAL         SUNNY     90  33  13 CALM      29.90F

$$

UTZ013>016-019>022-027-272200-

SOUTHERN UTAH

CITY           SKY/WX    TMP DP  RH WIND       PRES   REMARKS
BRYCE CANYON   SUNNY     83  14   7 VRB6G28   30.16F
CEDAR CITY     SUNNY     92  19   7 S15G28    30.01F
MILFORD        SUNNY     95  20   6 SW12G28   29.92F
ST GEORGE      PTCLDY    99  22   6 W14       29.83F HX  92
HANKSVILLE     SUNNY     99  21   6 S5G20     29.86F HX  92
BLANDING       SUNNY     90  18   7 SW6G24    30.08F

$$

REGIONAL REPORTS     COLORADO/ARIZONA

CITY           SKY/WX    TMP DP  RH WIND       PRES   REMARKS
CRAIG, CO      SUNNY     89  15   6 W9G22     29.96F
GRAND JUNCTION SUNNY     96  15   5 SW15      29.88F
RIFLE, CO      SUNNY     94   8   4 W16G26    29.93F
MONTROSE, CO   SUNNY     91  23   8 SW13G28   30.00F
CORTEZ, CO     SUNNY     93  19   7 SW14G31   30.04F
COLORADO CITY    N/A     97  21   6 W9        30.01F HX  90
PAGE, AZ       SUNNY     98  11   4 SW13      29.88F HX  91
GRAND CANYON   SUNNY     87   3   4 SW16G29   30.15S
KINGMAN, AZ    SUNNY     98  24   7 SW18G30   29.93F HX  91
FLAGSTAFF, AZ  SUNNY     85   7   5 SW32      30.19F

$$

REGIONAL REPORTS    NEVADA/IDAHO/WYOMING

CITY           SKY/WX    TMP DP  RH WIND       PRES   REMARKS
LAS VEGAS, NV  SUNNY    106   8   3 S21G28    29.78F HX  97
ELY, NY        SUNNY     85  31  14 VRB6      30.07F
ELKO, NV       SUNNY     85  25  11 S9G17     30.02F
POCATELLO, ID  MOSUNNY   84  44  24 SW25      29.94F
BURLEY, ID     SUNNY     81  42  25 W17G24    29.94F
FORT BRIDGER,    N/A     80  33  18 W29G39    30.10S
EVANSTON, WY   SUNNY     76  31  19 SW25G35   30.10S
ROCK SPRINGS,  CLOUDY    82  30  15 W33G43    30.00F
KEMMERER, WY     N/A     73  27  17 SW30G43   30.08S

$$




USA.gov is the U.S. government's official web portal to all federal, state and local government web resources and services.